Simultaneous Nadir Overpasses (SNOs) Predictions

Prediction of SNOs between METOP-A and NOAA-19 Satellite Orbit:

Table of predicted SNOs for the next 14.0 days since TLE Epoch: 2/11/2013
Index Date (METOP-A) Time (METOP-A) Lat,Lon (METOP-A) SZA (METOP-A ) Date (NOAA-19) Time (NOAA-19) Lat,Lon (NOAA-19) SZA (NOAA-19 ) Distance(km) Time Diff (sec)
1 02/18/2013 10:26:39 73.76, 16.94 85.41 02/18/2013 10:25:29 73.76, 15.29 85.50 51.09 70
2 02/18/2013 11:17:29 -73.38,-176.62 94.95 02/18/2013 11:16:26 -73.40,-176.63 94.91 2.60 63
3 02/18/2013 12:08:08 73.39, -9.26 85.05 02/18/2013 12:07:26 73.38, -9.32 85.05 2.31 42
4 02/18/2013 12:58:51 -73.36, 157.98 94.99 02/18/2013 12:58:30 -73.37, 157.94 94.98 1.69 21
5 02/18/2013 13:49:31 73.32, -34.77 84.96 02/18/2013 13:49:30 73.34, -34.75 84.99 2.66 1
6 02/18/2013 14:40:13 -73.33, 132.59 95.04 02/18/2013 14:40:34 -73.33, 132.51 95.05 2.70 21
7 02/18/2013 15:30:53 73.29, -60.16 84.92 02/18/2013 15:31:34 73.30, -60.19 84.92 1.37 41
8 02/18/2013 16:21:36 -73.26, 107.09 95.13 02/18/2013 16:22:38 -73.29, 107.08 95.11 3.40 62
9 02/18/2013 17:12:22 72.92, -86.31 84.56 02/18/2013 17:13:32 72.97, -84.95 84.52 44.80 70




NCC Satellite Simultaneous Nadir Overpasses (SNOs) Prediction Service
